Wetbulb
52.99 53.01 53.03 52.91 52.93 52.79 52.51 52.42 52.51 52.59 52.32 52.13 52.74 52.82 53.02 53.14 53.32 53.65 54.02 54.60 55.07 55.39 55.60 55.74 55.79 56.21 55.46 51.95 47.81 53.65 55.68 59.26 56.18 54.52 51.38 49.66 49.83 50.88 48.28 49.62 51.15 52.58 54.17 55.37 56.72 56.76 57.34
52.50 52.58 52.88 52.80 52.74 52.50 52.27 52.54 52.54 52.42 52.64 52.08 52.12 52.55 52.60 52.91 53.14 53.27 53.74 54.35 54.67 54.75 55.12 55.88 56.17 55.41 54.71 47.76 53.42 55.09 55.24 55.29 54.71 53.43 52.25 51.31 49.25 51.80 50.07 49.91 49.49 51.53 51.60 52.56 54.46 54.82 56.20
52.59 52.68 52.80 52.51 52.50 52.42 52.29 52.40 52.38 52.46 52.40 52.44 52.38 52.23 52.18 52.66 52.93 53.09 53.23 54.11 54.11 54.13 55.20 56.35 56.94 55.87 52.63 48.32 54.57 55.80 55.91 54.37 54.92 53.88 50.99 53.00 51.81 49.53 50.75 49.32 51.91 50.52 47.73 50.14 51.88 53.09 53.55
52.07 52.19 52.10 52.01 51.79 51.87 51.84 51.97 52.08 52.01 52.10 52.18 52.43 52.53 52.32 52.45 52.84 52.92 53.29 53.84 53.84 54.23 55.63 56.44 55.46 56.85 50.52 53.58 55.75 54.14 54.49 53.42 54.97 54.71 53.76 53.69 53.43 50.32 48.14 49.25 48.06 47.57 47.92 43.99 49.55 51.91 53.02
51.77 51.74 51.79 51.78 51.68 51.59 51.79 51.96 51.96 51.99 51.99 51.99 52.22 52.61 52.04 52.34 52.57 52.67 52.94 53.47 53.68 55.25 55.95 55.95 55.76 54.42 48.49 55.01 50.89 52.57 53.91 51.41 52.95 53.82 53.71 53.38 51.91 48.50 48.21 43.20 41.94 44.32 41.73 44.24 45.88 50.49 50.89
51.89 51.85 51.76 51.72 51.64 51.94 51.71 51.86 51.98 52.02 51.92 51.94 51.84 52.07 51.65 51.94 52.36 52.59 52.75 52.61 55.21 54.91 56.18 57.49 55.72 50.29 51.46 46.39 50.79 51.64 54.07 52.73 50.56 50.80 49.91 49.71 48.60 45.10 45.00 42.39 36.38 39.95 41.41 43.56 44.07 48.34 48.86
51.67 51.61 51.75 52.06 52.65 52.36 52.59 52.31 52.23 52.31 52.25 52.27 52.05 52.00 51.33 51.54 52.02 52.38 52.77 56.14 52.17 51.97 53.10 47.91 47.83 46.65 47.40 50.93 52.42 50.08 51.86 50.74 50.59 48.81 44.41 47.99 44.11 41.77 43.41 44.68 44.11 42.49 41.52 42.14 45.79 48.90 47.79
52.59 52.86 53.06 53.16 52.86 52.75 52.84 52.79 52.55 52.61 52.86 52.61 52.31 51.48 51.33 51.90 52.27 52.40 53.71 51.26 50.26 51.72 45.40 50.46 49.53 48.40 49.88 50.94 46.14 48.51 51.09 46.54 46.58 42.90 45.50 43.90 41.14 44.90 45.55 44.58 42.74 41.98 40.69 40.86 44.19 47.42 48.03
52.83 52.98 52.79 52.59 52.58 52.69 52.73 52.72 52.59 52.84 52.80 52.66 51.80 51.88 51.51 51.94 52.36 53.18 53.23 51.84 55.48 54.80 46.13 46.93 47.90 47.07 47.48 48.80 45.92 46.54 48.62 47.01 44.72 42.26 42.74 40.80 42.74 45.52 43.88 42.78 41.01 41.02 39.74 40.54 41.19 45.44 47.66
52.61 52.59 52.46 52.61 52.53 51.88 51.98 52.25 52.26 52.40 52.11 51.74 51.98 52.12 51.61 51.41 50.27 54.62 53.32 54.98 56.07 55.09 42.01 42.65 44.21 47.03 47.55 48.12 44.96 48.79 49.40 47.00 44.27 41.43 42.71 42.21 44.73 42.69 41.98 41.13 42.15 38.20 42.86 41.91 41.14 41.28 38.10
52.19 52.06 52.38 52.45 51.69 51.40 51.16 51.88 51.63 51.92 52.07 51.72 52.01 51.96 51.23 49.79 55.14 53.39 53.82 56.65 55.97 53.06 32.95 42.45 43.84 50.10 48.37 45.40 45.22 46.23 49.09 47.03 42.14 41.54 42.36 39.99 41.68 41.22 40.26 41.88 43.05 40.16 43.26 42.03 41.63 40.00 40.92
52.00 51.88 52.42 52.45 52.61 51.94 51.25 50.98 51.13 51.61 51.04 51.41 51.82 51.69 50.90 52.79 56.35 55.04 56.40 56.05 53.42 40.80 30.70 39.60 43.68 42.99 43.62 45.48 44.32 46.20 45.73 48.08 46.96 42.44 43.10 42.75 45.78 44.81 43.46 44.54 44.16 43.81 41.26 41.60 41.63 39.78 34.23
51.86 52.17 52.28 52.53 52.43 52.10 51.78 51.63 51.41 51.17 51.03 51.31 51.54 50.84 50.64 56.08 53.18 56.48 56.56 52.02 40.23 35.38 42.24 39.15 40.14 43.07 42.77 42.15 42.13 42.91 42.27 41.67 38.65 35.19 35.75 40.49 41.18 44.10 45.95 41.48 43.96 42.07 38.24 30.90 29.85 30.59 30.75
51.72 52.16 52.25 52.57 52.52 52.36 51.96 51.75 51.15 50.83 50.69 51.26 50.68 49.39 52.83 56.31 57.82 56.82 54.12 45.88 34.68 39.49 39.63 43.75 42.37 42.54 40.38 41.09 41.44 41.74 40.91 38.89 41.16 40.23 37.13 33.30 31.68 38.33 44.43 42.24 40.40 39.82 38.70 31.81 24.13 27.17 32.00
51.29 52.08 52.12 52.24 52.50 52.59 52.23 51.48 50.72 50.38 50.37 50.35 49.63 56.12 55.61 57.53 57.47 55.81 48.65 39.31 38.92 40.27 41.51 40.45 41.71 39.68 39.37 40.93 41.20 40.99 39.77 39.34 40.21 41.75 35.22 34.27 33.62 42.43 43.86 44.29 43.65 40.47 35.73 41.82 34.68 35.79 30.57
51.67 51.66 51.52 52.00 52.14 52.46 52.56 51.73 51.05 50.91 50.47 50.20 51.70 53.58 54.94 56.95 57.52 53.14 45.33 39.32 41.50 42.98 43.25 42.79 37.18 39.85 36.74 39.12 38.75 38.98 38.66 41.60 39.65 42.57 43.48 39.12 32.79 40.84 42.13 44.11 44.14 42.22 43.43 33.36 34.49 26.95 25.20
51.66 51.26 51.48 51.74 52.06 52.31 52.45 51.86 50.83 50.74 50.02 49.55 51.92 48.28 53.59 56.64 54.34 48.64 40.13 41.52 41.95 44.59 44.34 40.76 39.70 38.79 38.52 37.84 39.14 38.57 38.44 41.84 43.16 41.98 43.75 41.20 38.06 37.26 41.38 39.62 38.55 36.63 35.16 38.12 37.73 34.27 28.66
51.35 51.27 51.40 51.95 52.35 52.29 52.03 51.07 50.41 50.18 49.05 49.84 50.44 45.36 54.80 52.83 43.46 46.55 41.98 40.98 41.31 42.99 45.60 43.26 42.64 40.67 39.54 39.62 37.41 37.61 36.99 40.81 44.29 44.28 38.70 42.04 38.71 34.13 36.75 41.92 44.62 42.66 39.44 38.10 30.02 31.25 36.68
51.08 51.30 51.77 52.15 52.27 52.01 51.47 50.33 50.09 49.78 49.22 49.19 46.68 47.96 54.05 51.14 39.62 41.77 44.35 42.68 42.56 42.02 43.22 41.79 39.92 42.01 42.36 37.94 35.11 39.82 40.90 44.25 44.20 42.55 39.75 41.90 36.75 30.83 34.19 39.20 41.99 39.03 40.35 41.18 40.20 38.11 32.95
51.19 51.56 51.88 52.19 52.13 51.32 50.51 49.82 49.79 49.34 49.38 49.90 47.24 42.87 47.57 47.35 48.21 42.92 42.35 41.32 39.89 44.22 43.17 42.88 41.02 42.13 40.10 39.18 41.86 38.44 39.54 42.00 42.42 41.17 43.49 42.43 37.60 33.78 29.94 34.27 34.36 32.16 36.17 40.51 39.33 32.07 33.58
51.40 51.68 51.99 51.99 50.84 50.42 49.70 49.56 49.54 49.26 49.07 49.94 48.88 44.19 43.90 40.83 42.39 42.00 42.25 42.76 39.74 39.24 42.83 42.97 41.35 40.47 40.01 36.42 38.43 37.67 40.16 40.60 41.57 42.65 41.60 38.78 33.37 34.95 37.01 39.06 39.00 37.75 38.05 37.61 36.51 38.00 33.51
51.54 51.66 51.96 51.40 50.44 49.54 49.34 48.99 49.36 48.83 48.72 49.48 43.48 42.44 44.75 42.07 44.03 40.08 40.72 39.76 40.36 40.65 41.66 40.43 39.02 41.30 40.56 35.29 36.41 35.21 38.34 39.76 38.08 39.88 39.13 40.07 32.78 35.05 33.72 38.36 38.98 36.94 38.56 38.99 38.82 39.18 39.08
51.37 51.61 51.39 50.81 49.97 48.81 48.62 48.27 48.73 48.88 49.23 45.03 45.23 44.17 41.34 40.22 41.46 40.24 38.90 38.58 38.66 40.93 42.94 43.69 41.64 40.18 40.22 42.46 44.42 45.73 45.18 44.93 43.97 39.59 36.29 35.77 35.30 33.78 30.99 36.83 36.96 33.45 37.88 38.58 39.63 41.08 40.38
51.33 51.38 50.62 50.02 49.10 48.52 48.66 48.78 48.45 48.81 48.86 49.59 45.64 43.08 38.41 36.91 40.96 39.51 39.89 38.98 38.31 38.33 36.93 41.78 42.49 42.18 45.60 49.40 48.78 48.24 47.63 45.63 44.33 42.87 40.78 34.18 35.40 35.25 32.42 35.11 26.10 38.68 43.11 41.98 40.47 41.92 43.32
51.20 50.20 49.54 48.60 48.24 48.27 48.15 48.21 47.68 48.21 48.83 48.94 50.67 44.43 39.41 34.68 38.03 39.98 40.25 39.87 41.40 40.95 39.80 41.77 44.85 47.85 49.42 45.76 42.42 39.75 40.60 40.84 41.17 42.19 40.44 39.01 35.70 32.92 30.04 31.14 35.64 38.50 41.04 40.76 40.04 40.61 45.05
49.69 48.89 47.84 47.20 46.90 47.07 47.75 47.34 47.24 47.81 48.62 48.77 50.16 50.25 42.75 36.19 39.13 43.07 39.73 40.83 37.02 38.42 40.78 42.72 47.05 49.91 48.28 43.03 40.19 32.62 33.58 35.68 35.66 37.38 39.91 37.73 36.56 34.09 32.94 28.56 25.51 36.83 42.12 46.64 46.48 37.27 46.59
48.31 47.34 46.63 46.23 45.84 45.85 46.36 46.68 46.78 47.33 47.89 48.52 48.05 51.98 45.35 38.69 40.55 42.15 38.86 38.37 40.02 38.91 36.81 41.12 42.55 44.01 47.47 41.33 37.96 34.78 34.90 39.38 33.92 32.21 34.86 34.55 32.89 30.51 30.80 30.08 33.68 41.25 42.65 45.17 33.74 37.19 48.45
46.79 46.30 45.43 45.27 45.02 45.47 45.96 46.20 46.18 46.73 47.10 47.32 47.65 50.94 47.34 41.55 44.53 46.02 45.80 40.64 40.50 40.15 35.38 40.67 40.91 42.42 41.97 38.73 37.80 37.82 37.64 38.81 35.64 38.56 35.82 33.28 32.19 33.64 33.79 30.04 28.28 41.86 40.09 35.53 43.80 46.03 45.55
45.80 45.17 44.97 44.90 44.78 44.94 45.40 45.68 45.90 46.08 46.47 46.74 42.85 50.17 52.59 45.23 43.29 48.38 47.81 48.24 46.57 45.53 41.74 40.44 40.85 39.52 42.79 39.43 38.68 40.60 38.04 39.58 37.91 32.66 38.65 32.73 34.73 32.55 32.55 33.46 41.81 42.12 39.46 40.61 40.09 39.83 44.72
MSLP
1026.48 1026.13 1025.79 1025.46 1025.15 1024.80 1024.40 1023.92 1023.47 1023.06 1022.65 1022.23 1021.77 1021.30 1020.87 1020.41 1019.96 1019.48 1018.96 1018.46 1018.01 1017.51 1016.99 1016.57 1016.23 1015.79 1015.05 1012.01 1010.48 1011.23 1011.98 1011.44 1010.76 1010.19 1009.29 1008.52 1007.63 1006.61 1005.14 1004.38 1003.85 1002.22 1001.53 1001.26 1000.89 1000.89 1000.44
1026.68 1026.35 1025.99 1025.65 1025.31 1024.93 1024.51 1024.04 1023.55 1023.09 1022.59 1022.07 1021.60 1021.16 1020.72 1020.19 1019.68 1019.16 1018.62 1018.08 1017.72 1017.26 1016.74 1016.36 1016.00 1015.76 1014.12 1010.86 1010.91 1010.84 1010.87 1010.62 1009.92 1009.68 1009.09 1008.46 1007.65 1006.63 1005.35 1004.25 1003.45 1002.25 1001.62 1000.99 1000.61 1000.59 1000.39
1026.81 1026.46 1026.12 1025.75 1025.34 1024.96 1024.55 1024.11 1023.63 1023.15 1022.65 1022.09 1021.54 1021.12 1020.65 1020.10 1019.52 1018.96 1018.41 1017.81 1017.36 1016.89 1016.30 1015.93 1015.72 1015.00 1012.47 1010.59 1010.74 1010.37 1009.97 1009.70 1009.76 1009.84 1009.18 1008.43 1008.23 1007.63 1006.12 1005.06 1004.13 1003.14 1002.20 1001.10 1000.04 999.78 999.60
1026.96 1026.55 1026.18 1025.79 1025.37 1024.97 1024.53 1024.02 1023.50 1023.01 1022.52 1021.94 1021.32 1020.86 1020.37 1019.77 1019.12 1018.49 1017.93 1017.40 1016.89 1016.43 1015.93 1015.64 1015.56 1014.03 1010.73 1010.53 1010.42 1009.77 1009.77 1009.34 1009.15 1009.19 1009.47 1009.15 1008.63 1007.80 1006.75 1005.93 1004.39 1003.48 1002.26 1000.48 998.77 999.60 998.98
1027.13 1026.70 1026.31 1025.93 1025.51 1025.05 1024.53 1023.97 1023.41 1022.84 1022.31 1021.75 1021.11 1020.52 1020.05 1019.45 1018.77 1018.10 1017.48 1016.96 1016.38 1015.85 1015.71 1015.61 1014.98 1012.92 1009.72 1010.36 1009.83 1009.95 1009.86 1009.40 1009.19 1008.71 1008.38 1008.94 1008.76 1007.54 1006.54 1005.69 1004.65 1003.06 1000.59 999.33 998.45 998.88 999.03
1027.34 1026.89 1026.47 1026.03 1025.57 1025.12 1024.60 1024.06 1023.51 1022.91 1022.33 1021.75 1021.10 1020.45 1019.89 1019.26 1018.53 1017.81 1016.99 1016.21 1015.80 1015.81 1015.28 1014.37 1013.16 1012.01 1009.86 1009.75 1009.87 1009.96 1009.57 1009.28 1008.76 1008.52 1008.10 1008.03 1007.62 1006.74 1005.46 1004.80 1002.22 1001.08 1000.34 999.41 998.21 997.72 998.06
1027.53 1027.07 1026.61 1026.14 1025.61 1025.14 1024.61 1024.05 1023.49 1022.88 1022.27 1021.64 1020.96 1020.29 1019.61 1018.97 1018.28 1017.54 1016.55 1014.37 1014.88 1014.21 1012.61 1011.51 1011.05 1010.60 1009.92 1009.89 1009.92 1009.43 1009.00 1008.99 1008.21 1007.90 1007.10 1006.45 1005.99 1004.77 1003.85 1003.35 1002.79 1002.28 1001.14 999.16 997.61 997.08 997.40
1027.68 1027.19 1026.72 1026.26 1025.74 1025.18 1024.63 1024.02 1023.38 1022.73 1022.07 1021.37 1020.64 1019.93 1019.19 1018.51 1017.89 1017.09 1016.37 1013.93 1014.29 1014.10 1012.46 1010.98 1010.65 1010.62 1010.39 1010.28 1009.74 1008.81 1009.04 1008.78 1007.98 1007.26 1006.54 1005.96 1004.96 1004.70 1004.44 1004.05 1003.55 1002.81 1001.57 999.92 999.46 998.40 997.60
1027.71 1027.24 1026.76 1026.29 1025.78 1025.25 1024.63 1023.98 1023.30 1022.56 1021.87 1021.21 1020.45 1019.68 1018.88 1018.15 1017.60 1016.61 1014.54 1014.35 1014.08 1013.89 1012.35 1010.01 1010.09 1009.96 1009.64 1009.84 1009.03 1008.80 1008.93 1008.47 1007.98 1007.12 1006.41 1005.52 1004.85 1004.40 1004.18 1003.99 1003.77 1002.96 1002.10 1001.01 1000.10 999.51 998.75
1027.67 1027.23 1026.75 1026.24 1025.70 1025.14 1024.56 1023.89 1023.16 1022.38 1021.60 1020.89 1020.12 1019.34 1018.58 1017.90 1017.81 1014.51 1013.80 1014.31 1013.95 1014.00 1011.49 1009.66 1009.54 1009.22 1009.56 1009.13 1008.16 1008.86 1008.44 1008.58 1007.98 1007.09 1006.46 1005.56 1005.23 1004.70 1004.29 1003.64 1003.56 1002.61 1002.43 1001.88 1001.28 1000.52 998.84
1027.75 1027.30 1026.87 1026.34 1025.74 1025.11 1024.42 1023.73 1023.01 1022.20 1021.32 1020.49 1019.66 1018.84 1018.21 1018.05 1015.77 1013.75 1014.44 1014.11 1014.05 1013.86 1010.44 1009.68 1008.91 1009.40 1009.20 1008.77 1008.56 1008.04 1008.09 1008.17 1007.43 1006.93 1006.77 1005.37 1004.75 1004.27 1003.68 1003.08 1003.16 1002.52 1002.42 1001.98 1001.48 1000.79 999.65
1027.89 1027.40 1026.89 1026.29 1025.68 1025.09 1024.43 1023.69 1022.86 1022.04 1021.10 1020.04 1019.26 1018.50 1017.96 1016.95 1015.43 1014.41 1014.31 1014.37 1014.11 1012.25 1009.44 1009.02 1009.09 1008.68 1008.31 1007.77 1007.66 1007.40 1007.54 1007.49 1006.96 1006.47 1005.93 1005.12 1004.71 1005.10 1003.41 1003.04 1002.87 1002.89 1002.64 1002.18 1001.64 1000.83 999.10
1028.05 1027.55 1026.95 1026.34 1025.73 1025.02 1024.29 1023.52 1022.73 1021.84 1020.84 1019.67 1018.74 1018.18 1017.82 1015.49 1014.06 1014.27 1014.29 1013.64 1012.21 1010.02 1009.87 1008.83 1008.73 1008.62 1008.27 1007.24 1007.44 1007.07 1006.95 1006.46 1005.88 1005.99 1005.59 1005.21 1004.49 1004.51 1004.19 1003.29 1002.96 1002.96 1002.88 1002.23 1001.46 1000.44 998.91
1027.90 1027.41 1026.91 1026.31 1025.68 1025.10 1024.43 1023.44 1022.42 1021.61 1020.61 1019.36 1018.11 1017.78 1016.36 1014.88 1014.48 1014.51 1013.97 1012.46 1010.93 1009.76 1009.41 1009.44 1009.34 1008.87 1007.63 1007.38 1007.31 1006.88 1006.58 1005.81 1005.81 1005.96 1006.11 1005.94 1005.41 1005.89 1004.42 1003.57 1002.83 1002.71 1002.96 1002.59 1001.75 1000.70 999.31
1027.89 1027.35 1026.81 1026.19 1025.55 1024.97 1024.36 1023.62 1022.61 1021.41 1020.38 1019.19 1017.33 1015.92 1014.91 1014.39 1014.80 1014.51 1013.38 1011.16 1009.89 1009.85 1010.38 1010.29 1009.76 1008.23 1007.36 1007.20 1007.32 1006.84 1006.46 1006.06 1006.47 1006.54 1006.64 1006.46 1005.78 1005.17 1003.93 1003.52 1004.07 1002.97 1002.69 1003.22 1003.20 1002.69 1000.81
1027.83 1027.28 1026.74 1026.14 1025.52 1024.84 1024.23 1023.58 1022.64 1021.58 1020.34 1019.15 1017.47 1014.85 1013.54 1014.49 1014.62 1014.25 1012.73 1011.19 1010.47 1010.87 1011.15 1010.89 1010.20 1009.45 1008.43 1008.16 1008.03 1007.16 1006.68 1006.57 1006.70 1006.77 1006.86 1006.91 1005.96 1005.21 1003.97 1003.82 1003.21 1003.21 1003.35 1003.96 1005.33 1002.85 1000.68
1027.87 1027.28 1026.67 1026.06 1025.45 1024.81 1024.16 1023.61 1022.79 1021.71 1020.44 1018.69 1017.02 1014.36 1014.39 1014.46 1014.32 1013.36 1012.14 1010.53 1010.83 1011.30 1011.74 1011.43 1010.70 1010.21 1009.75 1009.24 1008.80 1008.20 1007.52 1007.05 1007.15 1006.97 1007.14 1006.85 1006.22 1005.00 1004.05 1003.34 1002.95 1004.40 1004.43 1004.55 1004.29 1003.59 1001.35
1027.80 1027.23 1026.62 1026.09 1025.47 1024.82 1024.20 1023.67 1022.91 1021.99 1020.84 1018.49 1016.58 1013.80 1014.24 1014.41 1013.70 1012.63 1011.62 1011.52 1012.16 1011.55 1011.61 1011.51 1011.64 1011.20 1010.71 1010.12 1009.68 1008.86 1008.14 1007.37 1008.00 1007.86 1007.62 1007.24 1006.85 1005.43 1003.89 1002.58 1002.42 1002.41 1003.44 1004.33 1005.05 1003.07 1000.76
1027.71 1027.16 1026.59 1025.98 1025.42 1024.85 1024.26 1023.73 1023.08 1022.40 1021.80 1020.39 1016.73 1014.52 1014.13 1014.41 1013.59 1012.66 1012.05 1011.64 1011.43 1011.53 1011.51 1011.55 1011.88 1011.56 1011.52 1011.00 1010.33 1009.10 1008.12 1007.94 1008.26 1008.74 1008.95 1009.18 1007.86 1006.28 1003.82 1002.06 1001.70 1002.21 1002.51 1002.79 1003.03 1002.84 1001.73
1027.65 1027.11 1026.49 1025.92 1025.36 1024.88 1024.40 1023.84 1023.20 1022.50 1021.90 1020.89 1017.05 1014.53 1013.62 1014.22 1013.85 1013.64 1012.65 1012.18 1011.81 1011.72 1011.64 1012.01 1012.31 1012.09 1011.45 1010.53 1009.78 1008.92 1008.17 1008.19 1009.71 1010.74 1010.81 1010.97 1009.57 1008.08 1005.48 1002.63 1004.69 1005.22 1004.09 1001.95 1002.16 1001.99 1000.58
1027.54 1027.02 1026.48 1025.87 1025.46 1025.04 1024.51 1023.97 1023.39 1022.60 1021.49 1020.65 1017.42 1016.15 1016.61 1014.50 1014.24 1014.38 1014.29 1013.02 1012.33 1011.88 1011.98 1012.26 1011.78 1011.51 1010.99 1010.59 1009.82 1008.84 1008.35 1008.33 1009.19 1010.27 1011.02 1011.49 1009.95 1008.72 1006.55 1004.40 1003.15 1002.32 1001.47 1001.02 1000.38 999.68 999.11
1027.46 1026.93 1026.36 1025.82 1025.45 1025.05 1024.65 1024.15 1023.65 1022.95 1021.62 1019.57 1018.89 1018.67 1017.85 1017.00 1015.60 1015.40 1014.82 1013.56 1012.81 1012.42 1012.40 1011.88 1011.64 1011.12 1011.30 1011.11 1010.58 1008.78 1008.40 1008.17 1008.87 1009.59 1010.12 1010.41 1009.47 1008.66 1006.57 1004.85 1002.97 1001.32 1000.46 999.95 999.61 997.90 997.54
1027.23 1026.74 1026.25 1025.81 1025.43 1025.02 1024.67 1024.27 1023.80 1023.31 1022.40 1021.78 1021.52 1021.43 1020.56 1018.27 1015.94 1015.32 1015.21 1015.20 1014.79 1014.65 1013.05 1012.18 1011.88 1011.32 1010.41 1009.32 1008.65 1007.77 1007.34 1006.93 1007.53 1008.48 1009.71 1010.19 1009.53 1008.11 1005.53 1004.00 1002.17 1000.40 999.01 998.53 998.27 997.03 996.81
1026.98 1026.52 1026.14 1025.74 1025.35 1024.95 1024.58 1024.18 1023.85 1023.49 1023.31 1022.66 1022.45 1022.37 1021.28 1018.78 1016.80 1016.15 1015.68 1015.64 1015.29 1015.15 1014.45 1013.24 1012.22 1010.72 1009.66 1009.01 1008.12 1006.38 1005.23 1005.53 1006.59 1007.75 1009.21 1009.64 1009.27 1008.21 1005.98 1004.07 1001.87 999.28 998.13 997.88 997.59 997.22 995.48
1026.68 1026.35 1026.01 1025.63 1025.20 1024.80 1024.41 1024.09 1023.71 1023.38 1023.18 1022.18 1022.04 1022.19 1021.64 1019.97 1018.53 1016.73 1015.52 1015.42 1014.87 1014.73 1014.11 1012.65 1011.34 1009.98 1009.95 1009.35 1007.57 1005.79 1004.44 1005.29 1006.18 1007.51 1008.66 1009.42 1009.28 1007.96 1006.28 1004.23 1001.59 999.55 999.09 998.45 998.29 997.43 996.37
1026.48 1026.16 1025.83 1025.49 1025.12 1024.71 1024.32 1024.02 1023.70 1023.33 1022.99 1021.89 1020.96 1021.62 1021.78 1020.87 1017.58 1016.63 1016.34 1015.50 1015.23 1014.69 1013.42 1012.14 1011.59 1010.81 1010.26 1009.45 1008.32 1007.40 1005.98 1006.41 1006.89 1007.31 1008.67 1009.27 1009.44 1008.73 1006.46 1004.96 1003.03 1001.97 1001.69 1000.32 999.83 997.93 997.15
1026.23 1025.97 1025.65 1025.30 1024.95 1024.66 1024.23 1023.91 1023.58 1023.20 1022.87 1022.24 1020.91 1021.07 1021.05 1020.00 1017.90 1017.18 1016.25 1015.87 1016.12 1015.69 1014.82 1013.31 1012.44 1010.97 1009.91 1009.17 1009.02 1007.89 1006.95 1006.88 1007.26 1007.92 1008.12 1008.78 1008.95 1008.38 1007.06 1005.90 1004.19 1003.40 1003.61 1003.09 1001.41 999.83 998.88
1026.09 1025.79 1025.46 1025.12 1024.82 1024.51 1024.08 1023.75 1023.40 1022.99 1022.66 1022.35 1020.67 1020.06 1020.44 1019.13 1016.77 1016.07 1015.30 1015.60 1015.54 1015.48 1015.24 1014.19 1013.11 1011.86 1010.59 1009.81 1009.48 1008.78 1007.83 1007.54 1007.94 1007.61 1008.40 1008.87 1008.62 1007.83 1007.24 1006.12 1005.29 1005.24 1005.22 1004.06 1000.69 1000.36 1000.72
1025.92 1025.59 1025.16 1024.84 1024.58 1024.24 1023.85 1023.41 1023.00 1022.72 1022.46 1022.14 1020.89 1019.38 1019.73 1019.43 1016.95 1015.81 1015.30 1015.06 1014.76 1014.60 1014.93 1014.98 1014.11 1013.82 1012.61 1012.43 1012.04 1011.04 1009.56 1008.42 1007.92 1007.72 1008.31 1008.52 1008.72 1008.48 1008.22 1006.78 1005.70 1005.75 1005.54 1004.35 1003.25 1002.35 1001.41
Wind_Speed
14 15 15 15 15 16 16 16 16 17 16 17 17 17 18 18 18 18 18 18 18 18 19 18 15 14 13 10 7 7 5 12 13 9 10 12 15 17 25 24 25 33 30 30 28 22 26
14 14 14 15 15 15 15 16 16 17 17 17 17 18 19 19 19 20 20 19 17 18 18 15 13 10 10 11 4 4 8 9 10 10 10 10 12 15 21 23 28 26 30 33 29 26 26
14 15 15 16 16 16 16 17 17 17 17 17 17 17 18 19 19 20 20 18 17 18 17 14 10 11 12 7 4 6 9 8 6 10 11 11 9 16 11 17 24 25 28 28 28 29 33
16 16 17 17 17 17 18 18 18 18 18 19 19 18 19 20 20 21 20 19 19 18 14 8 6 12 8 4 8 8 11 9 9 7 10 12 13 16 21 20 28 20 22 27 34 28 27
16 16 17 17 18 18 18 19 19 19 20 20 20 19 20 21 21 21 22 21 22 12 7 6 9 9 5 8 4 11 10 10 11 13 11 7 15 16 15 18 19 21 26 30 31 29 29
15 16 16 16 17 18 19 19 19 19 19 20 20 19 20 21 21 21 22 23 8 7 9 10 11 9 6 7 12 12 10 10 12 10 12 14 14 14 15 15 22 23 26 29 31 26 29
16 16 17 18 18 19 18 19 19 20 20 20 21 20 20 20 20 20 18 6 7 10 15 13 11 9 8 12 11 7 5 10 9 11 12 12 15 14 17 16 22 24 29 33 28 24 28
16 17 17 18 20 20 19 20 21 21 21 22 22 22 21 20 19 20 12 7 7 8 11 12 12 10 10 7 10 9 5 12 12 15 15 13 16 17 18 15 21 24 26 30 29 30 24
17 18 18 19 19 18 20 20 20 21 21 20 24 21 21 19 18 12 5 7 8 9 9 3 5 7 5 6 12 12 10 11 14 17 15 16 17 21 17 17 19 20 23 25 28 24 28
17 17 18 17 17 19 21 21 22 23 24 23 23 22 19 17 9 4 2 5 8 6 8 11 9 3 7 7 17 6 10 10 13 18 19 16 15 16 16 21 17 21 20 21 26 22 22
17 18 18 17 20 22 23 21 23 23 24 25 24 23 18 8 10 4 7 8 8 6 7 5 5 6 7 11 8 11 3 12 18 18 18 18 20 21 22 21 17 21 19 21 23 26 25
18 19 18 18 19 20 20 22 24 24 26 26 25 23 13 7 7 5 7 6 6 9 1 4 3 5 11 12 6 8 9 13 19 18 18 20 14 22 19 20 18 15 17 20 21 20 23
17 17 17 17 18 20 21 21 22 23 24 26 26 20 8 9 6 6 7 8 8 8 5 2 6 11 15 14 10 6 11 14 14 10 14 20 16 7 16 16 18 16 14 13 16 17 18
16 16 17 18 18 18 19 22 24 24 25 28 27 17 9 8 6 6 8 10 8 7 10 11 10 16 17 3 8 10 14 13 11 8 13 9 12 4 13 9 20 17 17 13 17 17 19
18 17 18 20 19 19 18 19 23 26 26 28 30 7 7 4 5 6 10 8 5 8 8 10 15 14 8 7 10 15 11 12 7 11 12 13 9 20 18 9 8 17 18 21 21 25 19
16 17 19 19 19 20 18 19 23 24 28 29 9 7 4 3 5 8 9 10 9 2 10 11 14 9 14 17 14 12 10 7 7 11 11 9 18 18 15 10 18 17 14 13 7 20 23
15 17 18 18 19 20 19 19 22 24 27 31 7 6 7 2 5 9 6 10 10 7 10 7 12 17 17 16 15 18 10 14 9 9 14 16 18 19 17 15 16 2 6 8 9 13 13
16 16 17 18 19 18 18 18 20 21 25 13 7 5 5 3 7 5 7 7 6 8 8 8 10 15 14 15 17 19 20 14 8 13 15 18 14 17 22 23 13 12 13 19 5 13 19
15 16 17 18 17 16 16 18 19 20 19 10 7 5 5 2 3 8 11 13 10 8 11 7 9 16 14 16 14 14 18 17 14 13 7 11 7 11 17 16 16 7 9 13 8 9 15
16 17 17 17 15 15 17 18 20 20 20 11 6 5 4 1 3 7 13 11 10 5 10 8 9 15 15 16 15 15 21 19 11 14 20 12 15 18 18 20 9 5 20 14 11 6 14
17 17 18 16 14 17 17 18 19 21 23 8 2 5 4 5 8 10 11 15 11 10 4 6 10 11 12 14 20 23 20 23 15 18 17 5 11 19 25 28 24 17 20 12 18 19 21
17 17 17 14 14 18 16 17 18 19 27 6 7 6 10 12 9 6 10 11 11 10 16 17 15 16 14 16 20 29 27 23 15 5 6 11 9 15 22 23 26 23 22 18 19 25 24
16 16 15 14 14 16 15 16 16 17 17 3 3 4 5 9 6 7 5 11 14 17 13 12 14 17 20 21 20 25 24 26 20 12 7 4 6 9 19 21 22 20 22 19 20 24 21
15 14 14 15 16 15 16 15 14 13 12 3 1 2 3 6 9 10 14 13 14 14 19 22 20 21 17 21 25 24 22 19 12 7 7 5 12 10 9 13 10 15 13 11 10 14 22
15 13 15 15 15 15 15 14 13 12 12 7 2 2 2 5 7 17 6 14 16 13 16 18 18 11 16 17 15 13 3 0 2 4 7 8 3 5 6 10 16 19 4 10 10 19 19
12 13 15 15 16 15 14 14 14 13 12 9 4 4 1 4 8 16 18 14 9 11 13 9 18 14 14 8 5 6 5 7 5 9 5 5 8 6 4 6 6 6 8 20 12 15 16
12 14 14 14 15 15 15 14 13 13 13 9 7 6 4 6 10 9 8 11 9 7 8 14 11 8 8 5 4 4 5 8 5 7 7 2 2 10 12 9 6 9 12 11 12 1 7
13 13 13 14 14 15 15 14 13 13 13 8 8 6 6 7 16 22 16 12 10 7 5 10 10 1 8 4 4 6 6 5 3 12 3 3 5 1 4 7 5 8 14 11 13 14 13
12 13 13 14 15 15 16 15 14 13 12 11 8 7 3 6 13 22 25 24 25 22 10 3 8 9 5 4 4 6 9 5 9 5 4 2 3 3 3 5 10 13 14 22 23 23 22
Wind_Direction
10 7 4 2 360 357 354 351 349 348 345 342 338 337 333 332 329 326 323 320 319 315 310 305 301 302 292 227 52 103 214 241 283 304 271 265 261 248 244 246 241 240 244 249 255 254 268
9 7 5 3 360 357 353 349 349 347 344 343 339 336 332 331 328 325 321 318 317 315 306 296 291 299 257 259 25 304 311 299 289 299 305 267 260 269 276 260 248 255 250 254 253 253 250
8 7 4 2 359 355 352 349 347 345 343 340 338 335 331 328 325 321 317 314 314 310 300 293 282 265 268 38 302 308 269 309 269 295 285 303 296 271 263 253 256 263 266 268 258 241 244
7 6 4 1 359 357 355 352 349 346 343 341 337 333 332 328 323 320 315 312 309 302 288 284 260 264 285 84 330 299 326 316 321 225 263 284 286 273 266 268 283 277 256 248 242 243 244
6 5 3 0 357 355 353 351 349 346 344 342 338 333 332 327 322 318 313 307 301 280 243 240 234 234 236 134 294 341 319 315 307 295 257 248 273 270 255 241 253 245 247 239 252 239 242
2 0 358 357 355 352 351 349 346 344 341 338 335 331 328 323 318 313 308 295 305 189 214 209 257 254 214 338 345 314 289 309 306 299 274 234 245 243 232 237 240 244 241 243 256 252 225
359 359 358 356 356 354 349 349 346 343 341 338 334 330 325 319 314 307 310 211 213 197 235 293 322 294 299 336 309 301 331 297 264 263 265 269 242 255 265 255 256 268 276 278 270 251 239
0 0 360 358 355 353 348 346 344 341 340 340 338 332 326 318 312 305 289 360 36 337 296 280 255 261 274 284 285 315 280 295 309 293 297 268 244 255 256 277 283 276 271 262 267 273 277
3 0 359 357 353 350 349 347 343 340 338 337 338 331 323 316 314 287 329 31 337 336 267 173 218 248 292 273 287 304 296 301 291 296 283 279 291 303 288 262 271 269 265 273 275 268 264
2 359 357 351 349 351 349 347 344 342 340 338 333 332 324 315 292 351 190 354 309 344 271 131 203 149 249 298 264 302 289 269 289 290 295 285 282 276 283 279 261 272 274 263 266 266 257
360 358 354 349 352 352 350 344 343 340 336 333 333 333 325 274 321 285 359 320 334 236 266 107 147 44 255 267 298 283 296 275 284 293 295 289 290 282 274 266 264 272 275 266 259 255 257
357 356 353 346 344 346 345 346 343 339 337 329 333 333 326 201 236 15 310 337 244 231 352 162 266 275 292 303 277 283 276 256 261 262 264 269 273 298 266 279 267 282 283 268 265 253 247
352 348 346 342 342 338 338 336 338 336 332 328 329 328 277 310 349 347 312 250 245 284 124 91 325 312 310 293 321 319 302 296 285 299 298 310 281 293 265 255 252 253 258 260 246 241 250
346 342 338 338 334 335 335 334 334 334 332 326 323 320 201 283 317 319 277 255 278 0 317 359 308 305 275 306 302 288 296 292 314 303 305 311 301 39 286 276 277 259 251 258 265 254 250
344 340 339 335 334 333 334 334 334 334 334 328 311 208 236 167 307 290 272 261 295 351 354 324 306 295 316 315 330 304 297 309 331 321 314 302 303 309 314 292 293 276 250 257 268 269 273
337 339 338 332 334 334 333 336 336 336 332 327 308 281 222 51 279 275 263 279 291 339 310 304 301 291 311 326 316 313 313 323 297 296 300 297 299 303 310 291 253 232 259 242 223 255 260
335 336 333 334 334 335 335 337 339 338 336 320 259 265 91 320 267 249 281 305 330 348 311 297 300 307 308 308 311 307 287 290 302 316 310 295 285 297 284 262 274 47 284 278 302 248 268
335 333 329 334 333 334 339 342 341 343 341 323 301 271 80 313 259 209 261 8 311 295 288 283 281 289 296 304 307 295 292 284 287 302 299 298 304 276 277 288 226 271 198 216 214 261 242
326 326 329 329 332 338 341 343 342 345 352 321 300 291 122 323 301 331 308 316 291 283 304 302 297 300 309 297 299 288 293 308 314 307 302 332 270 287 278 254 225 271 231 229 258 260 263
324 326 330 331 338 344 344 343 343 343 339 318 289 297 121 213 261 303 332 317 329 325 297 331 302 301 285 285 285 280 276 287 5 321 321 323 273 265 273 296 95 304 283 268 232 265 272
323 329 330 334 347 343 345 345 344 342 333 301 313 43 351 314 333 328 306 293 295 299 311 274 282 270 306 305 304 295 300 306 288 262 252 254 260 269 271 276 275 263 263 256 267 261 248
323 326 329 336 341 343 343 343 346 349 331 269 334 350 356 294 306 351 300 306 318 328 324 304 284 313 322 287 277 287 290 294 298 287 251 209 243 256 266 269 273 269 265 253 259 271 274
318 322 330 337 340 340 340 342 347 351 340 353 28 348 307 310 286 288 314 324 325 320 303 318 317 300 292 297 304 296 294 285 280 249 202 234 222 238 256 257 257 262 248 246 248 261 264
317 327 337 338 337 333 332 331 339 344 350 323 73 283 285 286 324 316 313 296 296 305 291 296 289 284 296 309 308 282 266 263 293 318 148 213 224 243 271 285 247 241 253 247 280 277 282
324 337 335 336 335 334 335 339 337 333 336 299 280 193 270 286 293 291 334 312 307 300 293 293 283 328 320 317 294 320 15 353 154 262 181 215 238 254 243 234 275 289 2 233 261 252 254
335 334 333 337 336 333 337 338 334 333 335 295 273 196 200 301 230 327 310 301 313 310 296 307 337 317 292 286 309 310 319 347 326 326 110 208 237 287 262 255 262 55 35 339 331 270 244
329 328 332 333 334 332 331 329 329 326 328 308 272 196 247 258 268 255 301 309 314 283 278 298 333 310 255 293 277 271 320 330 325 313 327 259 216 230 240 252 263 359 9 312 263 7 341
325 327 327 330 328 327 325 325 321 319 318 313 298 273 243 268 282 279 274 279 273 247 255 326 302 308 285 285 322 341 320 330 284 307 313 293 305 303 238 241 252 359 314 243 289 327 320
322 319 325 326 326 322 319 318 316 313 311 312 272 278 324 258 274 302 286 273 258 256 255 221 291 323 304 316 25 310 310 300 322 295 129 271 232 282 246 269 289 292 279 269 269 271 272